Year,Month,Day,Hour,Minute,Value (Times are PST for temperature in C)
2011,04,17,00,00,4.10
2011,04,17,00,01,4.00
2011,04,17,00,02,4.00
2011,04,17,00,03,4.00
2011,04,17,00,04,4.00
2011,04,17,00,05,4.00
2011,04,17,00,06,4.00
2011,04,17,00,07,4.10
2011,04,17,00,08,4.10
2011,04,17,00,09,4.10
2011,04,17,00,10,4.10
2011,04,17,00,11,4.10
2011,04,17,00,12,4.10
2011,04,17,00,13,4.10
2011,04,17,00,14,4.10
2011,04,17,00,15,4.10
2011,04,17,00,16,4.10
2011,04,17,00,17,4.10
2011,04,17,00,18,4.20
2011,04,17,00,19,4.20
2011,04,17,00,20,4.20
2011,04,17,00,21,4.20
2011,04,17,00,22,4.20
2011,04,17,00,23,4.20
2011,04,17,00,24,4.20
2011,04,17,00,25,4.20
2011,04,17,00,26,4.10
2011,04,17,00,27,4.10
2011,04,17,00,28,4.10
2011,04,17,00,29,4.10
2011,04,17,00,30,4.00
2011,04,17,00,31,4.00
2011,04,17,00,32,3.90
2011,04,17,00,33,3.90
2011,04,17,00,34,3.80
2011,04,17,00,35,3.80
2011,04,17,00,36,3.90
2011,04,17,00,37,3.90
2011,04,17,00,38,4.00
2011,04,17,00,39,4.00
2011,04,17,00,40,4.00
2011,04,17,00,41,4.00
2011,04,17,00,42,4.10
2011,04,17,00,43,4.10
2011,04,17,00,44,4.10
2011,04,17,00,45,4.10
2011,04,17,00,46,4.00
2011,04,17,00,47,4.00
2011,04,17,00,48,4.00
2011,04,17,00,49,3.90
2011,04,17,00,50,3.90
2011,04,17,00,51,3.90
2011,04,17,00,52,3.80
2011,04,17,00,53,3.80
2011,04,17,00,54,3.80
2011,04,17,00,55,3.70
2011,04,17,00,56,3.70
2011,04,17,00,57,3.60
2011,04,17,00,58,3.60
2011,04,17,00,59,3.50
2011,04,17,01,00,3.50
2011,04,17,01,01,3.50
2011,04,17,01,02,3.50
2011,04,17,01,03,3.60
2011,04,17,01,04,3.60
2011,04,17,01,05,3.60
2011,04,17,01,06,3.70
2011,04,17,01,07,3.70
2011,04,17,01,08,3.70
2011,04,17,01,09,3.70
2011,04,17,01,10,3.70
2011,04,17,01,11,3.80
2011,04,17,01,12,3.80
2011,04,17,01,13,3.80
2011,04,17,01,14,3.80
2011,04,17,01,15,3.80
2011,04,17,01,16,3.80
2011,04,17,01,17,3.90
2011,04,17,01,18,3.90
2011,04,17,01,19,3.90
2011,04,17,01,20,3.90
2011,04,17,01,21,3.90
2011,04,17,01,22,3.80
2011,04,17,01,23,3.80
2011,04,17,01,24,3.80
2011,04,17,01,25,3.80
2011,04,17,01,26,3.70
2011,04,17,01,27,3.70
2011,04,17,01,28,3.60
2011,04,17,01,29,3.60
2011,04,17,01,30,3.60
2011,04,17,01,31,3.50
2011,04,17,01,32,3.50
2011,04,17,01,33,3.50
2011,04,17,01,34,3.50
2011,04,17,01,35,3.50
2011,04,17,01,36,3.40
2011,04,17,01,37,3.40
2011,04,17,01,38,3.40
2011,04,17,01,39,3.40
2011,04,17,01,40,3.30
2011,04,17,01,41,3.30
2011,04,17,01,42,3.40
2011,04,17,01,43,3.40
2011,04,17,01,44,3.40
2011,04,17,01,45,3.50
2011,04,17,01,46,3.50
2011,04,17,01,47,3.60
2011,04,17,01,48,3.60
2011,04,17,01,49,3.60
2011,04,17,01,50,3.70
2011,04,17,01,51,3.70
2011,04,17,01,52,3.80
2011,04,17,01,53,3.80
2011,04,17,01,54,3.80
2011,04,17,01,55,3.80
2011,04,17,01,56,3.80
2011,04,17,01,57,3.70
2011,04,17,01,58,3.60
2011,04,17,01,59,3.50
2011,04,17,02,00,3.40
2011,04,17,02,01,3.30
2011,04,17,02,02,3.20
2011,04,17,02,03,3.10
2011,04,17,02,04,3.00
2011,04,17,02,05,2.90
2011,04,17,02,06,2.80
2011,04,17,02,07,2.80
2011,04,17,02,08,2.80
2011,04,17,02,09,2.70
2011,04,17,02,10,2.70
2011,04,17,02,11,2.60
2011,04,17,02,12,2.60
2011,04,17,02,13,2.50
2011,04,17,02,14,2.50
2011,04,17,02,15,2.40
2011,04,17,02,16,2.30
2011,04,17,02,17,2.30
2011,04,17,02,18,2.20
2011,04,17,02,19,2.20
2011,04,17,02,20,2.10
2011,04,17,02,21,2.10
2011,04,17,02,22,2.00
2011,04,17,02,23,2.00
2011,04,17,02,24,1.90
2011,04,17,02,25,1.90
2011,04,17,02,26,1.80
2011,04,17,02,27,1.80
2011,04,17,02,28,1.80
2011,04,17,02,29,1.70
2011,04,17,02,30,1.70
2011,04,17,02,31,1.60
2011,04,17,02,32,1.60
2011,04,17,02,33,1.60
2011,04,17,02,34,1.60
2011,04,17,02,35,1.50
2011,04,17,02,36,1.50
2011,04,17,02,37,1.40
2011,04,17,02,38,1.40
2011,04,17,02,39,1.30
2011,04,17,02,40,1.30
2011,04,17,02,41,1.30
2011,04,17,02,42,1.30
2011,04,17,02,43,1.30
2011,04,17,02,44,1.30
2011,04,17,02,45,1.30
2011,04,17,02,46,1.30
2011,04,17,02,47,1.30
2011,04,17,02,48,1.30
2011,04,17,02,49,1.30
2011,04,17,02,50,1.30
2011,04,17,02,51,1.30
2011,04,17,02,52,1.30
2011,04,17,02,53,1.30
2011,04,17,02,54,1.30
2011,04,17,02,55,1.30
2011,04,17,02,56,1.30
2011,04,17,02,57,1.30
2011,04,17,02,58,1.30
2011,04,17,02,59,1.30
2011,04,17,03,00,1.30
2011,04,17,03,01,1.30
2011,04,17,03,02,1.30
2011,04,17,03,03,1.30
2011,04,17,03,04,1.30
2011,04,17,03,05,1.30
2011,04,17,03,06,1.30
2011,04,17,03,07,1.40
2011,04,17,03,08,1.50
2011,04,17,03,09,1.60
2011,04,17,03,10,1.60
2011,04,17,03,11,1.60
2011,04,17,03,12,1.60
2011,04,17,03,13,1.60
2011,04,17,03,14,1.60
2011,04,17,03,15,1.60
2011,04,17,03,16,1.50
2011,04,17,03,17,1.50
2011,04,17,03,18,1.50
2011,04,17,03,19,1.40
2011,04,17,03,20,1.40
2011,04,17,03,21,1.50
2011,04,17,03,22,1.50
2011,04,17,03,23,1.40
2011,04,17,03,24,1.50
2011,04,17,03,25,1.50
2011,04,17,03,26,1.50
2011,04,17,03,27,1.60
2011,04,17,03,28,1.60
2011,04,17,03,29,1.60
2011,04,17,03,30,1.60
2011,04,17,03,31,1.50
2011,04,17,03,32,1.50
2011,04,17,03,33,1.40
2011,04,17,03,34,1.40
2011,04,17,03,35,1.30
2011,04,17,03,36,1.30
2011,04,17,03,37,1.30
2011,04,17,03,38,1.30
2011,04,17,03,39,1.30
2011,04,17,03,40,1.30
2011,04,17,03,41,1.20
2011,04,17,03,42,1.20
2011,04,17,03,43,1.20
2011,04,17,03,44,1.10
2011,04,17,03,45,1.10
2011,04,17,03,46,1.10
2011,04,17,03,47,1.10
2011,04,17,03,48,1.00
2011,04,17,03,49,1.00
2011,04,17,03,50,1.00
2011,04,17,03,51,0.90
2011,04,17,03,52,1.00
2011,04,17,03,53,1.00
2011,04,17,03,54,1.00
2011,04,17,03,55,0.90
2011,04,17,03,56,0.90
2011,04,17,03,57,0.90
2011,04,17,03,58,0.90
2011,04,17,03,59,0.90
2011,04,17,04,00,0.90
2011,04,17,04,01,1.00
2011,04,17,04,02,1.00
2011,04,17,04,03,1.00
2011,04,17,04,04,1.00
2011,04,17,04,05,0.90
2011,04,17,04,06,0.90
2011,04,17,04,07,0.90
2011,04,17,04,08,0.90
2011,04,17,04,09,0.90
2011,04,17,04,10,0.90
2011,04,17,04,11,0.90
2011,04,17,04,12,0.80
2011,04,17,04,13,0.80
2011,04,17,04,14,0.80
2011,04,17,04,15,0.80
2011,04,17,04,16,0.80
2011,04,17,04,17,0.80
2011,04,17,04,18,0.70
2011,04,17,04,19,0.70
2011,04,17,04,20,0.70
2011,04,17,04,21,0.70
2011,04,17,04,22,0.70
2011,04,17,04,23,0.70
2011,04,17,04,24,0.60
2011,04,17,04,25,0.60
2011,04,17,04,26,0.60
2011,04,17,04,27,0.60
2011,04,17,04,28,0.60
2011,04,17,04,29,0.60
2011,04,17,04,30,0.60
2011,04,17,04,31,0.60
2011,04,17,04,32,0.50
2011,04,17,04,33,0.50
2011,04,17,04,34,0.50
2011,04,17,04,35,0.50
2011,04,17,04,36,0.50
2011,04,17,04,37,0.40
2011,04,17,04,38,0.40
2011,04,17,04,39,0.40
2011,04,17,04,40,0.40
2011,04,17,04,41,0.40
2011,04,17,04,42,0.40
2011,04,17,04,43,0.30
2011,04,17,04,44,0.40
2011,04,17,04,45,0.40
2011,04,17,04,46,0.40
2011,04,17,04,47,0.40
2011,04,17,04,48,0.40
2011,04,17,04,49,0.40
2011,04,17,04,50,0.50
2011,04,17,04,51,0.60
2011,04,17,04,52,0.60
2011,04,17,04,53,0.70
2011,04,17,04,54,0.70
2011,04,17,04,55,0.80
2011,04,17,04,56,0.80
2011,04,17,04,57,0.80
2011,04,17,04,58,0.80
2011,04,17,04,59,0.80
2011,04,17,05,00,0.80
2011,04,17,05,01,0.70
2011,04,17,05,02,0.70
2011,04,17,05,03,0.70
2011,04,17,05,04,0.70
2011,04,17,05,05,0.70
2011,04,17,05,06,0.70
2011,04,17,05,07,0.70
2011,04,17,05,08,0.70
2011,04,17,05,09,0.70
2011,04,17,05,10,0.70
2011,04,17,05,11,0.70
2011,04,17,05,12,0.70
2011,04,17,05,13,0.70
2011,04,17,05,14,0.70
2011,04,17,05,15,0.70
2011,04,17,05,16,0.70
2011,04,17,05,17,0.70
2011,04,17,10,39,7.20
2011,04,17,10,40,7.20
2011,04,17,10,41,7.20
2011,04,17,10,42,7.20
2011,04,17,10,43,7.20
2011,04,17,10,44,7.20
2011,04,17,10,45,7.20
2011,04,17,10,46,7.20
2011,04,17,10,47,7.20
2011,04,17,10,48,7.20
2011,04,17,10,49,7.20
2011,04,17,10,50,7.20
2011,04,17,10,51,7.20
2011,04,17,10,52,7.20
2011,04,17,10,53,7.20
2011,04,17,10,54,7.20
2011,04,17,10,55,7.20
2011,04,17,10,56,7.20
2011,04,17,10,57,7.20
2011,04,17,10,58,7.20
2011,04,17,10,59,7.20
2011,04,17,11,00,7.20
2011,04,17,11,01,7.20
2011,04,17,11,02,7.30
2011,04,17,11,03,7.30
2011,04,17,11,04,7.30
2011,04,17,11,05,7.40
2011,04,17,11,06,7.60
2011,04,17,11,07,7.70
2011,04,17,11,08,7.80
2011,04,17,11,09,7.80
2011,04,17,11,10,7.90
2011,04,17,11,11,7.90
2011,04,17,11,12,7.80
2011,04,17,11,13,7.80
2011,04,17,11,14,7.70
2011,04,17,11,15,7.60
2011,04,17,11,16,7.70
2011,04,17,11,17,7.70
2011,04,17,11,18,7.80
2011,04,17,11,19,7.90
2011,04,17,11,20,8.00
2011,04,17,11,21,8.00
2011,04,17,11,22,8.00
2011,04,17,11,23,7.90
2011,04,17,11,24,7.80
2011,04,17,11,25,7.80
2011,04,17,11,26,7.80
2011,04,17,11,27,7.80
2011,04,17,11,28,7.80
2011,04,17,11,29,7.80
2011,04,17,11,30,7.90
2011,04,17,11,31,7.80
2011,04,17,11,32,7.80
2011,04,17,11,33,7.80
2011,04,17,11,34,7.90
2011,04,17,11,35,7.90
2011,04,17,11,36,7.90
2011,04,17,11,37,8.00
2011,04,17,11,38,8.00
2011,04,17,11,39,8.10
2011,04,17,11,40,8.10
2011,04,17,11,41,8.20
2011,04,17,11,42,8.20
2011,04,17,11,43,8.20
2011,04,17,11,44,8.10
2011,04,17,11,45,8.10
2011,04,17,11,46,8.10
2011,04,17,11,47,8.00
2011,04,17,11,48,8.00
2011,04,17,11,49,8.00
2011,04,17,11,50,8.00
2011,04,17,11,51,8.00
2011,04,17,11,52,8.10
2011,04,17,11,53,8.20
2011,04,17,11,54,8.20
2011,04,17,11,55,8.30
2011,04,17,11,56,8.30
2011,04,17,11,57,8.30
2011,04,17,11,58,8.30
2011,04,17,11,59,8.40
2011,04,17,12,00,8.40
2011,04,17,12,01,8.30
2011,04,17,12,02,8.30
2011,04,17,12,03,8.30
2011,04,17,12,04,8.20
2011,04,17,12,05,8.20
2011,04,17,12,06,8.10
2011,04,17,12,07,8.10
2011,04,17,12,08,8.10
2011,04,17,12,09,8.10
2011,04,17,12,10,8.10
2011,04,17,12,11,8.20
2011,04,17,12,12,8.20
2011,04,17,12,13,8.30
2011,04,17,12,14,8.30
2011,04,17,12,15,8.30
2011,04,17,12,16,8.40
2011,04,17,12,17,8.30
2011,04,17,12,18,8.30
2011,04,17,12,19,8.20
2011,04,17,12,20,8.30
2011,04,17,12,21,8.30
2011,04,17,12,22,8.30
2011,04,17,12,23,8.30
2011,04,17,12,24,8.30
2011,04,17,12,25,8.30
2011,04,17,12,26,8.20
2011,04,17,12,27,8.10
2011,04,17,12,28,8.10
2011,04,17,12,29,8.10
2011,04,17,12,30,8.10
2011,04,17,12,31,8.20
2011,04,17,12,32,8.20
2011,04,17,12,33,8.30
2011,04,17,12,34,8.30
2011,04,17,12,35,8.40
2011,04,17,12,36,8.50
2011,04,17,12,37,8.60
2011,04,17,12,38,8.50
2011,04,17,12,39,8.40
2011,04,17,12,40,8.50
2011,04,17,12,41,8.50
2011,04,17,12,42,8.60
2011,04,17,12,43,8.60
2011,04,17,12,44,8.60
2011,04,17,12,45,8.70
2011,04,17,12,46,8.80
2011,04,17,12,47,8.80
2011,04,17,12,48,8.70
2011,04,17,12,49,8.70
2011,04,17,12,50,8.60
2011,04,17,12,51,8.50
2011,04,17,12,52,8.40
2011,04,17,12,53,8.50
2011,04,17,12,54,8.70
2011,04,17,12,55,8.80
2011,04,17,12,56,8.90
2011,04,17,12,57,8.90
2011,04,17,12,58,8.90
2011,04,17,12,59,8.90
2011,04,17,13,00,9.00
2011,04,17,13,01,9.00
2011,04,17,13,02,9.00
2011,04,17,13,03,9.10
2011,04,17,13,04,9.00
2011,04,17,13,05,8.90
2011,04,17,13,06,8.90
2011,04,17,13,07,8.90
2011,04,17,13,08,8.90
2011,04,17,13,09,8.80
2011,04,17,13,10,8.80
2011,04,17,13,11,8.80
2011,04,17,13,12,8.80
2011,04,17,13,13,8.90
2011,04,17,13,14,9.00
2011,04,17,13,15,9.10
2011,04,17,13,16,9.10
2011,04,17,13,17,9.20
2011,04,17,13,18,9.20
2011,04,17,13,19,9.10
2011,04,17,13,20,9.00
2011,04,17,13,21,8.90
2011,04,17,13,22,8.90
2011,04,17,13,23,8.90
2011,04,17,13,24,8.90
2011,04,17,13,25,8.80
2011,04,17,13,26,8.80
2011,04,17,13,27,8.70
2011,04,17,13,28,8.80
2011,04,17,13,29,8.70
2011,04,17,13,30,8.70
2011,04,17,13,31,8.80
2011,04,17,13,32,8.80
2011,04,17,13,33,8.90
2011,04,17,13,34,9.00
2011,04,17,13,35,9.00
2011,04,17,13,36,9.10
2011,04,17,13,37,9.00
2011,04,17,13,38,8.80
2011,04,17,13,39,8.60
2011,04,17,13,40,8.60
2011,04,17,13,41,8.70
2011,04,17,13,42,8.80
2011,04,17,13,43,8.80
2011,04,17,13,44,8.80
2011,04,17,13,45,8.80
2011,04,17,13,46,8.80
2011,04,17,13,47,8.80
2011,04,17,13,48,8.90
2011,04,17,13,49,8.90
2011,04,17,13,50,9.00
2011,04,17,13,51,9.00
2011,04,17,13,52,8.90
2011,04,17,13,53,8.90
2011,04,17,13,54,8.90
2011,04,17,13,55,9.00
2011,04,17,13,56,9.00
2011,04,17,13,57,9.10
2011,04,17,13,58,9.10
2011,04,17,13,59,9.10
2011,04,17,14,00,9.10
2011,04,17,14,01,9.10
2011,04,17,14,02,9.20
2011,04,17,14,03,9.20
2011,04,17,14,04,9.20
2011,04,17,14,05,9.20
2011,04,17,14,06,9.10
2011,04,17,14,07,9.00
2011,04,17,14,08,8.90
2011,04,17,14,09,8.90
2011,04,17,14,10,8.90
2011,04,17,14,11,8.90
2011,04,17,14,12,9.00
2011,04,17,14,13,9.00
2011,04,17,14,14,9.00
2011,04,17,14,15,9.00
2011,04,17,14,16,9.00
2011,04,17,14,17,9.00
2011,04,17,14,18,9.10
2011,04,17,14,19,9.20
2011,04,17,14,20,9.30
2011,04,17,14,21,9.30
2011,04,17,14,22,9.40
2011,04,17,14,23,9.40
2011,04,17,14,24,9.40
2011,04,17,14,25,9.40
2011,04,17,14,26,9.30
2011,04,17,14,27,9.20
2011,04,17,14,28,9.20
2011,04,17,14,29,9.20
2011,04,17,14,30,9.20
2011,04,17,14,31,9.30
2011,04,17,14,32,9.40
2011,04,17,14,33,9.50
2011,04,17,14,34,9.70
2011,04,17,14,35,9.80
2011,04,17,14,36,9.90
2011,04,17,14,37,9.90
2011,04,17,14,38,10.00
2011,04,17,14,39,10.10
2011,04,17,14,40,10.20
2011,04,17,14,41,10.10
2011,04,17,14,42,9.90
2011,04,17,14,43,9.90
2011,04,17,14,44,9.80
2011,04,17,14,45,9.70
2011,04,17,14,46,9.70
2011,04,17,14,47,9.70
2011,04,17,14,48,9.80
2011,04,17,14,49,9.80
2011,04,17,14,50,9.80
2011,04,17,14,51,9.90
2011,04,17,14,52,9.80
2011,04,17,14,53,9.80
2011,04,17,14,54,9.80
2011,04,17,14,55,9.90
2011,04,17,14,56,9.90
2011,04,17,14,57,9.70
2011,04,17,14,58,9.60
2011,04,17,14,59,9.60
2011,04,17,15,00,9.60
2011,04,17,15,01,9.60
2011,04,17,15,02,9.60
2011,04,17,15,03,9.50
2011,04,17,15,04,9.50
2011,04,17,15,05,9.60
2011,04,17,15,06,9.60
2011,04,17,15,07,9.60
2011,04,17,15,08,9.50
2011,04,17,15,09,9.40
2011,04,17,15,10,9.40
2011,04,17,15,11,9.40
2011,04,17,15,12,9.40
2011,04,17,15,13,9.50
2011,04,17,15,14,9.60
2011,04,17,15,15,9.60
2011,04,17,15,16,9.70
2011,04,17,15,17,9.70
2011,04,17,15,18,9.70
2011,04,17,15,19,9.70
2011,04,17,15,20,9.70
2011,04,17,15,21,9.70
2011,04,17,15,22,9.80
2011,04,17,15,23,9.80
2011,04,17,15,24,9.80
2011,04,17,15,25,9.80
2011,04,17,15,26,9.70
2011,04,17,15,27,9.70
2011,04,17,15,28,9.80
2011,04,17,15,29,9.80
2011,04,17,15,30,9.80
2011,04,17,15,31,9.70
2011,04,17,15,32,9.70
2011,04,17,15,33,9.70
2011,04,17,15,34,9.60
2011,04,17,15,35,9.60
2011,04,17,15,36,9.60
2011,04,17,15,37,9.70
2011,04,17,15,38,9.70
2011,04,17,15,39,9.70
2011,04,17,15,40,9.70
2011,04,17,15,41,9.70
2011,04,17,15,42,9.80
2011,04,17,15,43,9.90
2011,04,17,15,44,10.00
2011,04,17,15,45,10.00
2011,04,17,15,46,9.90
2011,04,17,15,47,10.00
2011,04,17,15,48,10.10
2011,04,17,15,49,10.20
2011,04,17,15,50,10.30
2011,04,17,15,51,10.40
2011,04,17,15,52,10.50
2011,04,17,15,53,10.50
2011,04,17,15,54,10.50
2011,04,17,15,55,10.50
2011,04,17,15,56,10.60
2011,04,17,15,57,10.50
2011,04,17,15,58,10.50
2011,04,17,15,59,10.40
2011,04,17,16,00,10.30
2011,04,17,16,01,10.30
2011,04,17,16,02,10.30
2011,04,17,16,03,10.20
2011,04,17,16,04,10.20
2011,04,17,16,05,10.20
2011,04,17,16,06,10.20
2011,04,17,16,07,10.20
2011,04,17,16,08,10.20
2011,04,17,16,09,10.20
2011,04,17,16,10,10.20
2011,04,17,16,11,10.20
2011,04,17,16,12,10.30
2011,04,17,16,13,10.30
2011,04,17,16,14,10.40
2011,04,17,16,15,10.40
2011,04,17,16,16,10.40
2011,04,17,16,17,10.30
2011,04,17,16,18,10.30
2011,04,17,16,19,10.20
2011,04,17,16,20,10.20
2011,04,17,16,21,10.20
2011,04,17,16,22,10.20
2011,04,17,16,23,10.10
2011,04,17,16,24,10.00
2011,04,17,16,25,9.90
2011,04,17,16,26,9.90
2011,04,17,16,27,9.90
2011,04,17,16,28,9.80
2011,04,17,16,29,9.80
2011,04,17,16,30,9.80
2011,04,17,16,31,9.90
2011,04,17,16,32,9.90
2011,04,17,16,33,9.90
2011,04,17,16,34,9.90
2011,04,17,16,35,9.90
2011,04,17,16,36,10.00
2011,04,17,16,37,10.00
2011,04,17,16,38,10.00
2011,04,17,16,39,10.10
2011,04,17,16,40,10.10
2011,04,17,16,41,10.10
2011,04,17,16,42,10.00
2011,04,17,16,43,10.10
2011,04,17,16,44,10.10
2011,04,17,16,45,10.10
2011,04,17,16,46,10.10
2011,04,17,16,47,10.00
2011,04,17,16,48,10.00
2011,04,17,16,49,10.00
2011,04,17,16,50,10.10
2011,04,17,16,51,10.20
2011,04,17,16,52,10.30
2011,04,17,16,53,10.30
2011,04,17,16,54,10.30
2011,04,17,16,55,10.30
2011,04,17,16,56,10.30
2011,04,17,16,57,10.40
2011,04,17,16,58,10.50
2011,04,17,16,59,10.50
2011,04,17,17,00,10.60
2011,04,17,17,01,10.60
2011,04,17,17,02,10.60
2011,04,17,17,03,10.50
2011,04,17,17,04,10.50
2011,04,17,17,05,10.50
2011,04,17,17,06,10.40
2011,04,17,17,07,10.30
2011,04,17,17,08,10.30
2011,04,17,17,09,10.20
2011,04,17,17,10,10.10
2011,04,17,17,11,10.00
2011,04,17,17,12,9.80
2011,04,17,17,13,9.70
2011,04,17,17,14,9.60
2011,04,17,17,15,9.60
2011,04,17,17,16,9.60
2011,04,17,17,17,9.50
2011,04,17,17,18,9.40
2011,04,17,17,19,9.40
2011,04,17,17,20,9.30
2011,04,17,17,21,9.30
2011,04,17,17,22,9.30
2011,04,17,17,23,9.30
2011,04,17,17,24,9.40
2011,04,17,17,25,9.50
2011,04,17,17,26,9.60
2011,04,17,17,27,9.60
2011,04,17,17,28,9.70
2011,04,17,17,29,9.80
2011,04,17,17,30,9.90
2011,04,17,17,31,10.00
2011,04,17,17,32,10.00
2011,04,17,17,33,10.00
2011,04,17,17,34,10.00
2011,04,17,17,35,10.00
2011,04,17,17,36,9.90
2011,04,17,17,37,9.80
2011,04,17,17,38,9.70
2011,04,17,17,39,9.60
2011,04,17,17,40,9.50
2011,04,17,17,41,9.40
2011,04,17,17,42,9.30
2011,04,17,17,43,9.20
2011,04,17,17,44,9.20
2011,04,17,17,45,9.10
2011,04,17,17,46,9.10
2011,04,17,17,47,9.00
2011,04,17,17,48,9.00
2011,04,17,17,49,9.00
2011,04,17,17,50,8.90
2011,04,17,17,51,8.90
2011,04,17,17,52,8.90
2011,04,17,17,53,8.80
2011,04,17,17,54,8.80
2011,04,17,17,55,8.80
2011,04,17,17,56,8.70
2011,04,17,17,57,8.70
2011,04,17,17,58,8.60
2011,04,17,17,59,8.60
2011,04,17,18,00,8.60
2011,04,17,18,01,8.60
2011,04,17,18,02,8.60
2011,04,17,18,03,8.60
2011,04,17,18,04,8.50
2011,04,17,18,05,8.50
2011,04,17,18,06,8.50
2011,04,17,18,07,8.50
2011,04,17,18,08,8.50
2011,04,17,18,09,8.50
2011,04,17,18,10,8.50
2011,04,17,18,11,8.50
2011,04,17,18,12,8.50
2011,04,17,18,13,8.50
2011,04,17,18,14,8.50
2011,04,17,18,15,8.50
2011,04,17,18,16,8.50
2011,04,17,18,17,8.60
2011,04,17,18,18,8.60
2011,04,17,18,19,8.60
2011,04,17,18,20,8.60
2011,04,17,18,21,8.60
2011,04,17,18,22,8.60
2011,04,17,18,23,8.60
2011,04,17,18,24,8.60
2011,04,17,18,25,8.60
2011,04,17,18,26,8.60
2011,04,17,18,27,8.60
2011,04,17,18,28,8.50
2011,04,17,18,29,8.50
2011,04,17,18,30,8.40
2011,04,17,18,31,8.30
2011,04,17,18,32,8.30
2011,04,17,18,33,8.20
2011,04,17,18,34,8.20
2011,04,17,18,35,8.10
2011,04,17,18,36,8.10
2011,04,17,18,37,8.00
2011,04,17,18,38,8.00
2011,04,17,18,39,8.00
2011,04,17,18,40,7.90
2011,04,17,18,41,7.90
2011,04,17,18,42,7.90
2011,04,17,18,43,7.90
2011,04,17,18,44,7.90
2011,04,17,18,45,7.90
2011,04,17,18,46,7.90
2011,04,17,18,47,7.90
2011,04,17,18,48,7.90
2011,04,17,18,49,7.90
2011,04,17,18,50,7.90
2011,04,17,18,51,7.90
2011,04,17,18,52,7.90
2011,04,17,18,53,7.90
2011,04,17,18,54,7.90
2011,04,17,18,55,7.90
2011,04,17,18,56,7.90
2011,04,17,18,57,8.00
2011,04,17,18,58,8.00
2011,04,17,18,59,8.10
2011,04,17,19,00,8.10
2011,04,17,19,01,8.10
2011,04,17,19,02,8.10
2011,04,17,19,03,8.10
2011,04,17,19,04,8.10
2011,04,17,19,05,8.00
2011,04,17,19,06,8.00
2011,04,17,19,07,8.00
2011,04,17,19,08,7.90
2011,04,17,19,09,7.90
2011,04,17,19,10,7.90
2011,04,17,19,11,7.90
2011,04,17,19,12,7.90
2011,04,17,19,13,7.90
2011,04,17,19,14,7.90
2011,04,17,19,15,7.90
2011,04,17,19,16,7.90
2011,04,17,19,17,7.90
2011,04,17,19,18,7.80
2011,04,17,19,19,7.80
2011,04,17,19,20,7.80
2011,04,17,19,21,7.70
2011,04,17,19,22,7.60
2011,04,17,19,23,7.60
2011,04,17,19,24,7.50
2011,04,17,19,25,7.40
2011,04,17,19,26,7.40
2011,04,17,19,27,7.40
2011,04,17,19,28,7.30
2011,04,17,19,29,7.30
2011,04,17,19,30,7.20
2011,04,17,19,31,7.20
2011,04,17,19,32,7.20
2011,04,17,19,33,7.20
2011,04,17,19,34,7.20
2011,04,17,19,35,7.10
2011,04,17,19,36,7.10
2011,04,17,19,37,7.10
2011,04,17,19,38,7.00
2011,04,17,19,39,6.90
2011,04,17,19,40,6.90
2011,04,17,19,41,6.80
2011,04,17,19,42,6.80
2011,04,17,19,43,6.70
2011,04,17,19,44,6.70
2011,04,17,19,45,6.60
2011,04,17,19,46,6.60
2011,04,17,19,47,6.60
2011,04,17,19,48,6.50
2011,04,17,19,49,6.50
2011,04,17,19,50,6.40
2011,04,17,19,51,6.40
2011,04,17,19,52,6.40
2011,04,17,19,53,6.30
2011,04,17,19,54,6.30
2011,04,17,19,55,6.20
2011,04,17,19,56,6.20
2011,04,17,19,57,6.10
2011,04,17,19,58,6.10
2011,04,17,19,59,6.00
2011,04,17,20,00,5.90
2011,04,17,20,01,5.90
2011,04,17,20,02,5.90
2011,04,17,20,03,5.80
2011,04,17,20,04,5.80
2011,04,17,20,05,5.70
2011,04,17,20,06,5.60
2011,04,17,20,07,5.60
2011,04,17,20,08,5.50
2011,04,17,20,09,5.50
2011,04,17,20,10,5.50
2011,04,17,20,11,5.40
2011,04,17,20,12,5.40
2011,04,17,20,13,5.40
2011,04,17,20,14,5.40
2011,04,17,20,15,5.30
2011,04,17,20,16,5.30
2011,04,17,20,17,5.30
2011,04,17,20,18,5.30
2011,04,17,20,19,5.20
2011,04,17,20,20,5.20
2011,04,17,20,21,5.20
2011,04,17,20,22,5.20
2011,04,17,20,23,5.20
2011,04,17,20,24,5.10
2011,04,17,20,25,5.10
2011,04,17,20,26,5.10
2011,04,17,20,27,5.00
2011,04,17,20,28,5.00
2011,04,17,20,29,4.90
2011,04,17,20,30,4.90
2011,04,17,20,31,4.90
2011,04,17,20,32,4.80
2011,04,17,20,33,4.80
2011,04,17,20,34,4.80
2011,04,17,20,35,4.80
2011,04,17,20,36,4.80
2011,04,17,20,37,4.80
2011,04,17,20,38,4.80
2011,04,17,20,39,4.80
2011,04,17,20,40,4.80
2011,04,17,20,41,4.80
2011,04,17,20,42,4.70
2011,04,17,20,43,4.70
2011,04,17,20,44,4.70
2011,04,17,20,45,4.60
2011,04,17,20,46,4.60
2011,04,17,20,47,4.60
2011,04,17,20,48,4.50
2011,04,17,20,49,4.50
2011,04,17,20,50,4.50
2011,04,17,20,51,4.50
2011,04,17,20,52,4.50
2011,04,17,20,53,4.40
2011,04,17,20,54,4.40
2011,04,17,20,55,4.30
2011,04,17,20,56,4.30
2011,04,17,20,57,4.30
2011,04,17,20,58,4.30
2011,04,17,20,59,4.30
2011,04,17,21,00,4.30
2011,04,17,21,01,4.30
2011,04,17,21,02,4.20
2011,04,17,21,03,4.20
2011,04,17,21,04,4.20
2011,04,17,21,05,4.20
2011,04,17,21,06,4.20
2011,04,17,21,07,4.20
2011,04,17,21,08,4.20
2011,04,17,21,09,4.20
2011,04,17,21,10,4.10
2011,04,17,21,11,4.10
2011,04,17,21,12,4.10
2011,04,17,21,13,4.10
2011,04,17,21,14,4.00
2011,04,17,21,15,4.00
2011,04,17,21,16,4.00
2011,04,17,21,17,4.00
2011,04,17,21,18,3.90
2011,04,17,21,19,3.90
2011,04,17,21,20,3.90
2011,04,17,21,21,3.90
2011,04,17,21,22,4.00
2011,04,17,21,23,4.10
2011,04,17,21,24,4.10
2011,04,17,21,25,4.20
2011,04,17,21,26,4.20
2011,04,17,21,27,4.30
2011,04,17,21,28,4.30
2011,04,17,21,29,4.30
2011,04,17,21,30,4.30
2011,04,17,21,31,4.30
2011,04,17,21,32,4.30
2011,04,17,21,33,4.30
2011,04,17,21,34,4.30
2011,04,17,21,35,4.30
2011,04,17,21,36,4.30
2011,04,17,21,37,4.30
2011,04,17,21,38,4.30
2011,04,17,21,39,4.30
2011,04,17,21,40,4.30
2011,04,17,21,41,4.30
2011,04,17,21,42,4.30
2011,04,17,21,43,4.30
2011,04,17,21,44,4.20
2011,04,17,21,45,4.20
2011,04,17,21,46,4.20
2011,04,17,21,47,4.20
2011,04,17,21,48,4.20
2011,04,17,21,49,4.20
2011,04,17,21,50,4.20
2011,04,17,21,51,4.20
2011,04,17,21,52,4.10
2011,04,17,21,53,4.10
2011,04,17,21,54,4.10
2011,04,17,21,55,4.10
2011,04,17,21,56,4.10
2011,04,17,21,57,4.00
2011,04,17,21,58,4.00
2011,04,17,21,59,4.00
2011,04,17,22,00,4.00
2011,04,17,22,01,4.00
2011,04,17,22,02,4.10
2011,04,17,22,03,4.10
2011,04,17,22,04,4.10
2011,04,17,22,05,4.10
2011,04,17,22,06,4.10
2011,04,17,22,07,4.10
2011,04,17,22,08,4.10
2011,04,17,22,09,4.00
2011,04,17,22,10,4.00
2011,04,17,22,11,4.00
2011,04,17,22,12,4.00
2011,04,17,22,13,4.00
2011,04,17,22,14,3.90
2011,04,17,22,15,3.90
2011,04,17,22,16,3.90
2011,04,17,22,17,3.80
2011,04,17,22,18,3.80
2011,04,17,22,19,3.80
2011,04,17,22,20,3.80
2011,04,17,22,21,3.80
2011,04,17,22,22,3.80
2011,04,17,22,23,3.70
2011,04,17,22,24,3.70
2011,04,17,22,25,3.70
2011,04,17,22,26,3.70
2011,04,17,22,27,3.60
2011,04,17,22,28,3.60
2011,04,17,22,29,3.50
2011,04,17,22,30,3.50
2011,04,17,22,31,3.40
2011,04,17,22,32,3.40
2011,04,17,22,33,3.30
2011,04,17,22,34,3.30
2011,04,17,22,35,3.20
2011,04,17,22,36,3.20
2011,04,17,22,37,3.20
2011,04,17,22,38,3.10
2011,04,17,22,39,3.10
2011,04,17,22,40,3.10
2011,04,17,22,41,3.10
2011,04,17,22,42,3.10
2011,04,17,22,43,3.10
2011,04,17,22,44,3.20
2011,04,17,22,45,3.30
2011,04,17,22,46,3.40
2011,04,17,22,47,3.40
2011,04,17,22,48,3.40
2011,04,17,22,49,3.40
2011,04,17,22,50,3.40
2011,04,17,22,51,3.40
2011,04,17,22,52,3.50
2011,04,17,22,53,3.40
2011,04,17,22,54,3.40
2011,04,17,22,55,3.40
2011,04,17,22,56,3.30
2011,04,17,22,57,3.30
2011,04,17,22,58,3.30
2011,04,17,22,59,3.20
2011,04,17,23,00,3.20
2011,04,17,23,01,3.20
2011,04,17,23,02,3.20
2011,04,17,23,03,3.10
2011,04,17,23,04,3.10
2011,04,17,23,05,3.10
2011,04,17,23,06,3.10
2011,04,17,23,07,3.20
2011,04,17,23,08,3.30
2011,04,17,23,09,3.30
2011,04,17,23,10,3.30
2011,04,17,23,11,3.30
2011,04,17,23,12,3.20
2011,04,17,23,13,3.20
2011,04,17,23,14,3.20
2011,04,17,23,15,3.10
2011,04,17,23,16,3.10
2011,04,17,23,17,3.10
2011,04,17,23,18,3.00
2011,04,17,23,19,3.00
2011,04,17,23,20,3.00
2011,04,17,23,21,2.90
2011,04,17,23,22,2.90
2011,04,17,23,23,2.80